Location: ?????????
(54.7630°N, 39.4991°E)
Time: 21:35:31
(UTC+00:00)

Helios 1A - Pass Details

Date: 14 April 2026
Orbit: 541 x 559 km, 98.2° (Epoch: 16 May)

Event Time Altitude Azimuth Distance (km) Brightness Sun altitude
Rises 19:38:43 0° 17° (NNE) 2,758 7.1 -22.0°
Reaches altitude 10° 19:40:53 10° 21° (NNE) 1,855 6.0 -22.2°
Enters shadow 19:44:31 59° 73° (ENE) 646 3.0 -22.4°
